User: anonymous   Login
Location: Columbus
(29.5618°N, 96.6770°W)
Time: 22:40:33
(UTC-06:00)
Language:

Cosmos 2056 Rocket - Orbit

View from above orbital plane
View from above orbital plane
View from above satellite
View from above satellite

Ground track
Ground track

The orbit data is extracted from the following two-line orbital elements,

1 20433U 90004B   15061.56828612  .00000237  00000-0  89926-4 0  9996
2 20433 074.0343 093.6774 0039820 066.3058 089.9156 14.35790831314974
Epoch (UTC): 02 March 2015 13:38:19
Eccentricity: 0.0039820
inclination: 74.0343°
perigee height: 744 km
apogee height: 801 km
right ascension of ascending node: 93.6774°
argument of perigee: 66.3058°
revolutions per day: 14.35790831
mean anomaly at epoch: 89.9156°
orbit number at epoch: 31497

The dashed part of the orbit path shows where the satellite is in the earth's shadow,  

DLR